Regional Weather Roundup
Issued by NWS Northern Indiana

Home | Current Version | Previous Version | Text Only | Print | Product List | Glossary On
Versions: 1 2 3 4 5 6 7 8 9 10 11 12 13 14 15 16 17 18 19 20 21 22 23 24 25 26 27 28 29 30 31 32 33 34 35 36 37 38 39 40 41 42 43 44 45 46 47 48 49 50
000
ASUS43 KIWX 230410
RWRIWX

KIWX WEATHER ROUNDUP
NATIONAL WEATHER SERVICE NORTHERN INDIANA
1200 AM EDT SAT AUG 23 2014

NOTE: "FAIR" INDICATES FEW OR NO CLOUDS BELOW 12,000 FEET WITH NO
SIGNIFICANT WEATHER AND/OR OBSTRUCTIONS TO VISIBILITY.

* THESE STATIONS ARE NOT UNDER NWS QUALITY CONTROL. THEY ALSO MAY NOT
  REPORT WEATHER SUCH AS PRECIPITATION OR FOG.

INZ001>027-230500-
NORTHERN INDIANA

CITY           SKY/WX    TMP DP  RH WIND       PRES   REMARKS
GARY*          CLEAR     76  73  91 CALM      30.00R
VALPARAISO     PTCLDY    73  70  90 CALM      30.01R
MICHIGAN CITY* PTCLDY    73  73 100 CALM      30.00S
LAPORTE*       PTCLDY    73  73 100 CALM      30.01S
KNOX*          PTCLDY    71  69  92 CALM      29.99S
SOUTH BEND     PTCLDY    77  74  90 CALM      30.01R
GOSHEN         PTCLDY    78  74  87 SW6       30.00R FOG
MONTICELLO*    CLEAR     72  71  99 CALM      30.00S
LOGANSPORT*    PTCLDY    72  70  94 SW3       30.02S
ROCHESTER*     CLEAR     77  73  88 CALM      30.01S
WARSAW*        MOCLDY    75  73  94 W5        30.01R
ANGOLA*        MOCLDY    72  64  78 CALM      30.02R
FORT WAYNE     TSTM      74  72  93 NW12      30.01R FOG
HUNTINGTON*    MOCLDY    73  72  98 CALM      30.00S
PERU/GRISSOM   CLOUDY    76  76 100 SW6       30.01S
MARION*        CLOUDY    71  70  98 CALM      30.02R

$$
INZ028>050-230500-
CENTRAL INDIANA

CITY           SKY/WX    TMP DP  RH WIND       PRES   REMARKS
LAFAYETTE      CLEAR     71  71 100 CALM      30.00S
KOKOMO*        MOCLDY    75  72  88 SW5       30.01S
MUNCIE*        CLEAR     73  71  93 CALM      30.02S
INDIANAPOLIS   PTCLDY    76  70  82 CALM      30.00F

$$
MIZ043>046-050>051-056>058-064>065-071>073-077>080-230500-
SOUTHWEST LOWER MICHIGAN

CITY           SKY/WX    TMP DP  RH WIND       PRES   REMARKS
BATTLE CREEK   CLEAR     73  70  90 CALM      30.03R
BENTON HARBOR  CLEAR     72  70  93 CALM      30.00R
COLDWATER*     CLOUDY    74  73  94 CALM      30.01S FOG
HILLSDALE*     PTCLDY    72  72 100 CALM      30.03S
HOLLAND        CLEAR     75  72  90 E7        30.02R
GRAND RAPIDS   CLEAR     72  72 100 E7        30.03R
KALAMAZOO      CLEAR     73  70  90 CALM      30.02R FOG
STURGIS*         N/A     72  72 100 CALM      30.01R FOG
THREE RIVERS*  FAIR      74  72  92 CALM      30.02R FOG

$$
OHZ001>008-015>018-024>025-230500-
NORTHWEST OHIO

CITY           SKY/WX    TMP DP  RH WIND       PRES   REMARKS
WAUSEON*       CLOUDY    73  72  94 CALM      30.02R FOG
DEFIANCE       CLOUDY    76  71  85 E3        30.01R
FINDLAY        PTCLDY    75  71  87 E7        30.01R
TOLEDO EXPRESS CLOUDY    73  71  93 CALM      30.01R
TOLEDO METCALF MOCLDY    72  70  93 CALM      30.02R FOG
LIMA           MOCLDY    74  71  91 CALM      30.01S

$$
&&



USA.gov is the U.S. government's official web portal to all federal, state and local government web resources and services.